User: anonymous   Login
Location: B�retswil
(47.3376°N, 8.8534°E)
Time: 12:54:21
(UTC+00:00)
Language:

deb r/b Ablestar - Orbit

View from above orbital plane
View from above orbital plane
View from above satellite
View from above satellite

Ground track
Ground track

The orbit data is extracted from the following two-line orbital elements,

1 00243U 61015BY  21266.62274944  .00000318  00000-0  28241-3 0  9999
2 00243  66.4664  21.4958 0024100 128.2251 232.1003 13.97496925 41562
Epoch (UTC): 23 September 2021 14:56:45
Eccentricity: 0.0024100
inclination: 66.4664°
perigee height: 885 km
apogee height: 920 km
right ascension of ascending node: 21.4958°
argument of perigee: 128.2251°
revolutions per day: 13.97496925
mean anomaly at epoch: 232.1003°
orbit number at epoch: 4156

The dashed part of the orbit path shows where the satellite is in the earth's shadow,  

DLR